GFSFLT1_sfc_wetblb_069.txt.gz
Wetbulb
67.98 69.24 69.96 69.65 68.54 67.95 68.39 69.99 71.34 72.78 73.11 73.47 73.26 73.04 72.88 73.21 72.11 71.28 71.25 71.08 72.10 71.96 71.42 71.19 70.87 71.16 71.45 72.33 70.82 72.72 73.54 73.38 73.77
69.68 69.94 70.36 70.65 70.39 69.82 69.08 68.14 68.97 70.77 71.60 72.22 73.03 72.96 72.74 72.09 70.81 71.17 70.81 71.58 72.48 71.87 71.25 71.16 70.78 70.65 71.03 71.46 72.02 71.37 72.40 73.24 73.38
71.61 71.44 71.44 71.70 71.45 71.09 70.75 70.35 69.00 68.72 69.41 70.55 71.42 72.23 72.33 71.50 70.26 70.17 71.28 71.97 71.81 72.27 70.89 70.82 70.99 70.47 70.54 70.81 71.34 71.75 71.35 72.11 72.64
72.03 72.02 71.45 71.62 71.98 71.45 70.54 69.91 69.43 69.65 68.94 68.26 67.78 67.83 69.68 69.99 69.51 69.04 71.19 71.73 71.97 72.28 72.23 70.35 70.56 70.81 70.15 70.15 70.54 71.04 71.98 71.08 72.20
67.78 68.84 68.55 69.34 68.87 68.80 68.29 68.05 68.01 68.18 66.50 66.80 66.96 67.27 67.67 68.37 67.76 68.55 69.71 70.08 70.65 71.46 71.84 72.03 70.34 70.44 70.79 70.49 69.86 70.11 70.81 71.68 71.99
63.10 61.36 62.35 63.01 63.29 63.31 64.00 64.76 65.71 67.52 68.20 66.58 66.26 67.68 67.56 66.74 64.16 64.62 68.06 67.88 68.62 69.61 70.61 71.68 71.82 70.59 70.19 70.40 70.81 70.12 69.92 70.54 71.19
60.11 60.87 60.96 60.36 60.71 61.22 62.36 62.84 66.00 66.81 64.15 66.19 68.68 67.17 67.31 67.53 66.99 66.14 65.54 65.36 66.11 66.83 68.41 70.65 71.88 71.38 70.88 70.70 70.31 70.60 70.91 70.32 70.96
56.78 56.96 57.00 57.23 60.71 56.11 57.74 57.53 56.92 57.36 58.58 60.04 61.44 63.02 64.09 65.20 66.56 66.64 65.43 64.63 65.51 66.44 66.40 67.07 70.33 71.67 71.44 70.96 70.76 70.71 70.90 71.47 71.10
54.72 54.90 55.64 55.96 55.36 54.76 55.05 54.74 55.18 55.43 55.25 54.74 54.75 55.46 57.83 61.01 63.10 65.37 63.03 61.63 62.89 64.59 66.22 66.40 66.92 69.69 71.57 71.57 71.10 70.69 70.63 71.07 71.39
54.68 54.19 54.24 54.21 54.37 53.55 53.38 53.51 53.27 53.43 53.74 53.91 53.84 53.95 54.57 55.17 56.58 60.49 62.98 59.58 60.06 61.78 63.97 64.80 65.97 66.84 68.38 70.60 71.32 71.67 71.13 70.75 70.88
54.21 53.69 53.54 53.26 53.33 52.97 52.76 52.35 52.41 52.45 52.87 52.82 53.24 53.28 53.90 54.45 55.92 56.78 58.91 62.44 60.60 60.07 60.76 62.40 63.98 65.31 66.56 67.70 70.53 71.46 71.35 71.29 71.04
54.13 53.97 53.50 53.15 53.31 52.59 52.55 52.01 52.41 52.30 52.45 52.11 52.45 53.21 52.83 54.04 53.92 55.54 57.12 58.01 62.33 61.73 60.05 59.76 61.48 63.81 65.42 66.79 67.58 70.47 71.74 71.12 71.39
54.40 54.02 53.49 53.53 53.49 53.17 52.29 51.58 51.29 51.32 51.27 51.16 52.04 51.80 52.62 52.34 52.61 54.53 55.59 56.65 56.55 60.18 62.61 60.61 60.59 61.83 63.90 65.83 67.05 67.98 71.09 71.28 70.99
54.02 53.70 53.50 53.41 53.18 52.73 52.06 51.48 50.96 50.27 50.81 51.02 51.32 51.75 52.48 52.84 52.69 52.76 54.73 56.09 57.22 57.25 60.18 60.69 59.89 60.31 62.20 63.59 65.80 66.92 67.70 71.07 71.43
53.63 53.57 53.32 52.97 52.66 52.32 51.93 50.87 51.05 50.48 50.36 49.38 49.58 51.26 52.22 52.89 53.12 52.52 53.10 55.11 57.36 57.91 59.99 59.52 58.53 61.37 60.25 59.85 62.28 64.97 66.78 67.42 71.28
52.91 52.95 52.64 52.65 51.69 51.31 51.52 50.69 49.68 49.85 50.43 49.05 49.28 49.70 50.27 50.75 52.47 52.88 53.38 55.09 55.67 56.63 56.51 58.04 57.06 57.19 61.93 59.82 58.91 61.39 64.35 66.65 67.76
52.01 51.85 51.69 51.60 51.34 50.77 50.63 51.04 49.03 48.99 49.99 46.92 47.02 44.01 46.84 49.97 51.33 52.17 50.73 50.29 53.10 52.91 54.48 54.90 56.06 56.68 56.83 58.14 60.25 60.35 59.70 61.21 65.21
51.55 51.45 51.03 50.57 50.71 50.14 50.54 50.48 50.20 46.93 48.26 48.05 45.59 42.06 41.38 45.10 47.89 48.76 49.89 49.97 50.99 50.98 51.74 52.33 53.08 53.47 54.06 55.97 56.90 60.23 59.93 59.28 60.86
51.35 51.04 50.66 50.05 49.91 49.45 50.02 49.35 48.55 48.22 45.51 47.66 47.26 47.10 46.34 42.40 41.44 46.87 48.08 48.84 48.64 49.73 50.38 50.65 51.07 52.07 52.58 55.52 57.68 58.72 58.25 56.98 57.06
51.57 50.84 50.11 49.58 49.54 49.05 48.23 47.62 47.03 47.67 46.21 46.05 46.05 45.61 46.14 45.56 42.91 40.68 43.85 47.18 48.65 49.75 50.07 50.32 50.76 51.59 51.98 52.40 54.53 57.39 59.21 58.41 56.40

GFSFLT1_sfc_wetblb_072.txt.gz
Wetbulb
70.52 70.89 71.07 70.42 69.83 69.06 68.26 68.86 70.83 71.87 71.89 73.25 73.24 73.35 73.42 73.83 70.85 70.02 71.29 70.01 72.72 72.00 71.47 71.08 70.94 71.40 72.30 71.48 72.20 73.39 73.41 73.28 73.58
71.62 71.56 71.68 71.77 71.47 71.24 70.85 69.19 68.85 69.36 70.55 71.52 72.29 72.98 72.81 70.46 68.92 68.52 69.59 70.90 73.04 72.33 71.39 71.26 70.81 70.96 71.26 72.21 71.36 72.26 73.20 73.56 73.18
72.19 72.47 72.52 72.46 72.21 71.46 71.00 70.56 70.17 69.73 68.70 68.36 68.53 69.27 70.59 69.13 68.29 68.22 70.04 72.69 72.51 72.59 71.53 70.97 71.08 70.61 70.67 71.05 71.71 71.63 71.82 72.50 72.60
71.38 70.95 70.81 70.27 70.40 69.82 69.18 68.96 69.05 68.74 68.43 68.25 67.83 67.71 68.63 65.27 66.93 67.42 68.98 72.64 71.98 72.04 72.18 70.96 70.54 70.85 70.40 70.37 70.88 71.53 72.08 71.68 71.66
66.16 65.30 65.94 65.86 65.80 65.33 65.43 65.73 66.94 67.71 68.21 67.99 68.12 68.84 69.27 63.40 61.28 66.77 67.94 69.99 69.54 70.08 70.97 71.67 70.84 70.15 70.49 70.59 70.09 70.40 71.38 71.76 71.60
58.37 61.08 62.01 62.02 62.23 61.93 62.43 63.70 66.11 67.86 69.28 68.49 69.67 69.96 64.73 64.18 62.90 64.59 67.78 67.34 67.50 67.70 68.79 70.53 71.74 70.79 69.97 70.00 70.62 70.19 70.29 71.35 71.56
57.64 60.45 63.89 63.13 62.91 64.61 64.52 64.96 64.18 60.63 55.13 57.00 62.83 59.95 59.81 61.85 63.22 63.07 67.06 66.92 67.01 67.25 67.18 67.42 70.33 71.69 70.57 70.28 70.05 70.31 70.65 70.47 71.16
51.68 51.50 52.05 51.52 57.64 51.54 53.16 51.88 51.81 50.79 50.90 50.81 50.03 51.15 52.68 56.67 59.47 65.42 66.17 65.48 65.48 66.16 66.60 67.13 67.19 69.93 71.64 71.04 70.51 70.53 70.66 71.40 71.04
49.39 49.75 50.23 49.82 49.79 48.39 48.97 49.12 48.84 48.92 49.27 47.77 47.85 48.08 48.82 49.78 51.54 61.99 65.02 62.61 61.67 61.80 64.37 66.02 66.66 67.21 68.84 71.47 71.38 70.98 70.50 70.76 71.52
49.05 48.33 48.73 48.43 48.59 47.81 47.65 47.42 47.67 47.43 48.28 48.46 47.84 47.25 47.53 48.37 49.96 51.28 63.34 62.19 60.18 60.34 60.85 62.57 64.99 65.85 66.82 68.16 69.76 71.18 71.35 70.68 70.91
48.97 48.46 48.55 48.04 47.94 47.45 47.11 46.17 46.65 47.03 47.51 48.00 47.86 47.05 46.98 47.68 48.59 50.23 51.33 63.46 63.46 61.04 60.38 60.39 61.14 63.06 65.59 66.64 67.49 69.09 71.29 71.02 71.38
49.32 48.75 48.07 47.83 48.34 48.43 47.87 47.19 47.55 46.94 48.02 45.87 47.05 47.35 47.22 47.71 47.17 47.90 49.90 52.47 60.30 63.85 61.37 60.01 60.46 61.01 62.94 65.35 66.69 67.64 68.47 71.64 71.03
49.28 48.87 48.04 48.12 48.54 48.27 47.31 46.71 46.16 45.69 45.34 44.68 45.58 45.71 46.39 46.81 46.98 48.30 48.65 49.79 52.00 56.38 62.26 59.69 60.64 60.71 61.24 61.77 64.42 66.77 67.53 68.54 70.97
49.19 48.67 48.19 48.55 48.35 47.86 47.48 46.57 45.50 44.42 44.54 45.77 44.52 44.78 45.44 46.21 49.54 46.66 47.47 48.60 50.74 50.89 57.85 61.57 61.70 60.31 60.99 61.81 61.94 63.61 66.25 67.38 69.41
48.56 48.76 48.21 48.11 47.23 47.09 46.32 44.70 45.17 44.54 44.40 47.68 46.73 44.14 44.95 45.46 45.55 46.19 48.54 48.50 50.22 50.71 51.63 53.98 55.31 60.37 59.73 61.12 60.11 59.88 62.10 65.55 67.11
47.44 47.55 47.07 47.09 45.97 45.21 45.93 44.89 43.86 43.22 44.16 42.31 42.34 42.69 45.90 44.32 43.83 44.59 45.89 46.50 47.27 49.11 50.62 51.68 52.63 52.87 61.65 62.90 60.41 59.73 60.64 62.81 64.38
47.94 46.26 46.26 46.04 44.94 44.73 44.70 44.17 43.05 42.76 43.38 39.90 39.25 37.21 40.21 42.22 44.47 43.68 44.71 43.90 44.53 46.07 47.20 46.45 47.88 49.15 50.24 53.27 60.28 60.05 58.30 59.09 59.55
47.09 46.30 45.19 44.61 44.30 43.64 43.80 43.59 42.80 40.67 41.50 41.50 39.14 35.73 34.34 39.71 42.17 41.16 42.94 42.64 43.31 43.13 44.66 45.76 46.41 46.38 46.11 50.81 52.77 57.87 60.31 58.98 59.29
47.18 46.57 45.69 44.50 44.03 43.25 43.02 44.83 41.49 40.37 38.67 40.24 43.80 40.13 38.50 36.85 36.41 39.59 40.84 42.32 43.58 42.70 43.46 44.18 44.87 44.85 45.07 51.02 55.15 58.15 59.86 59.00 58.48
47.21 46.44 45.17 44.24 43.79 43.20 42.41 41.80 40.97 40.36 38.90 38.25 38.41 38.01 38.26 38.16 37.81 36.10 38.52 40.04 41.44 42.10 42.77 43.58 43.99 44.57 45.15 45.66 49.43 56.34 56.96 57.34 57.44

GFSFLT1_sfc_wetblb_078.txt.gz
Wetbulb
71.87 72.13 71.61 71.39 71.36 70.78 70.06 69.27 68.75 68.78 68.72 68.51 68.69 69.39 69.94 68.86 68.93 69.63 70.32 68.53 71.69 71.32 70.87 70.76 71.42 71.68 71.69 73.10 73.21 73.01 73.06 73.10 72.81
72.85 72.18 72.06 71.10 71.29 70.94 70.56 70.24 69.97 69.78 69.69 69.96 69.74 68.34 68.68 66.52 68.37 68.91 69.03 70.41 72.18 71.56 70.99 70.55 70.55 71.15 71.39 71.54 72.62 73.10 72.73 72.78 72.89
71.70 71.12 70.50 69.68 68.94 68.61 68.86 68.70 68.34 69.04 69.83 70.08 70.07 70.29 68.96 65.27 68.04 68.36 69.04 71.65 71.73 72.14 70.92 70.64 70.28 70.28 70.69 71.19 71.51 72.34 72.60 72.73 72.49
68.65 67.73 65.90 65.07 64.97 64.94 65.78 65.40 65.13 67.81 67.96 67.46 67.71 68.49 69.49 60.76 63.76 67.63 67.04 71.81 70.56 71.06 71.17 70.79 70.20 69.97 69.95 70.22 71.47 71.43 72.05 71.75 72.00
64.10 63.58 64.23 63.63 63.90 63.72 63.36 63.20 62.80 62.67 63.07 63.32 62.92 61.59 62.52 61.35 65.26 65.58 66.39 69.47 68.16 68.61 69.14 70.47 70.72 69.80 69.87 69.76 69.67 70.82 71.19 71.05 71.50
57.43 63.77 63.39 62.33 62.27 62.19 61.83 61.30 60.83 58.70 58.46 60.35 59.84 56.13 50.46 60.21 62.39 63.66 69.48 68.83 68.43 68.04 67.75 67.74 69.09 70.94 69.56 69.71 70.16 69.66 70.98 71.14 70.73
55.68 58.29 60.35 60.44 59.35 59.85 59.66 59.24 57.57 52.81 46.28 47.04 52.01 46.60 46.61 49.26 60.19 63.34 68.14 65.36 64.62 64.89 66.14 67.28 67.46 68.27 70.50 70.11 69.53 70.13 69.57 70.47 70.94
46.76 46.25 45.78 45.76 52.64 45.83 47.53 46.29 46.06 45.29 45.56 45.56 44.76 45.29 44.92 44.66 48.22 61.26 64.99 63.61 61.81 60.97 61.45 63.27 66.36 67.00 67.90 69.68 70.43 70.23 70.35 70.44 70.74
44.34 44.90 44.92 44.79 44.22 43.79 43.66 43.93 44.59 44.96 45.34 43.57 43.85 43.43 43.79 44.05 45.43 48.20 58.79 61.19 62.05 61.41 60.51 60.79 61.82 64.63 66.30 66.92 68.44 69.77 70.47 70.61 71.02
45.00 44.50 44.65 43.95 44.24 43.79 43.46 43.62 43.84 43.87 44.56 44.67 43.94 43.55 43.22 43.64 45.20 45.13 55.45 58.73 60.65 60.95 60.27 60.68 60.45 61.17 61.98 64.01 66.30 67.27 68.55 70.23 70.54
45.22 44.50 44.44 44.18 44.10 43.75 43.69 43.49 43.32 43.11 43.31 44.41 44.28 43.22 42.77 43.36 43.71 44.82 45.13 55.82 58.16 60.13 59.88 59.67 59.24 60.37 61.21 62.12 63.60 65.37 67.13 67.93 69.92
44.65 44.16 43.97 43.55 44.52 44.75 44.41 44.26 43.86 43.75 44.65 42.58 43.59 43.50 42.74 43.40 43.26 44.27 44.82 46.14 52.81 56.34 58.87 59.19 58.83 58.91 60.50 61.31 61.58 62.15 64.10 67.13 67.76
45.10 44.80 44.08 44.39 45.07 44.75 43.88 43.33 42.93 42.64 42.19 41.61 42.63 42.26 42.66 42.64 42.73 43.72 43.32 43.58 46.05 50.19 56.59 60.01 58.01 58.08 59.59 60.45 61.04 61.76 62.33 64.70 67.06
45.37 44.73 44.62 45.21 44.68 44.07 43.55 43.14 42.39 41.85 42.05 43.57 42.91 41.78 41.46 41.16 44.34 41.05 42.65 43.73 44.20 45.10 51.48 57.40 59.39 60.23 58.76 59.35 59.94 60.98 60.26 60.32 62.33
45.76 45.22 44.88 44.34 43.74 43.15 42.50 42.07 42.15 41.55 41.30 44.60 43.26 40.81 40.73 39.68 39.74 39.91 42.80 42.18 42.86 42.57 43.70 44.77 47.67 55.69 59.38 61.25 60.00 59.83 60.32 59.94 61.22
45.13 44.87 44.20 43.93 43.29 42.41 42.45 41.80 41.17 40.89 40.36 38.79 38.71 38.41 39.52 37.70 38.91 39.34 39.13 41.06 41.82 41.63 42.62 42.34 42.63 44.45 53.38 54.42 56.31 58.12 59.80 59.65 59.16
45.25 44.22 44.06 43.17 42.69 41.52 41.22 40.62 39.56 39.75 39.38 37.43 34.90 33.87 36.53 38.15 40.95 41.17 39.68 39.62 39.92 42.50 42.50 40.54 41.36 41.61 42.52 46.84 54.06 54.95 56.20 56.93 57.66
45.28 43.98 43.35 42.50 41.48 41.26 40.29 39.98 39.18 37.78 38.07 37.61 36.94 32.88 30.88 33.65 37.09 38.07 39.00 37.62 39.18 38.94 39.64 40.85 41.24 41.29 41.06 44.73 47.56 53.43 55.69 56.41 56.43
45.20 44.15 42.81 41.62 40.89 40.23 39.70 41.59 38.73 37.28 35.99 36.57 39.81 36.44 35.78 32.99 32.35 35.28 36.65 38.51 38.53 38.00 38.48 39.49 40.20 40.06 40.79 45.63 49.05 51.75 54.07 54.22 54.55
44.06 42.80 41.76 41.08 40.26 39.70 39.56 38.71 37.64 37.09 36.40 35.72 35.22 34.22 34.36 33.86 32.85 33.42 34.42 37.03 36.92 37.80 38.00 38.48 38.69 39.55 40.04 40.75 44.89 51.17 52.19 53.23 54.29

GFSFLT1_sfc_wetblb_084.txt.gz
Wetbulb
71.63 70.89 71.04 71.00 71.05 70.97 70.77 70.81 70.90 70.49 70.43 70.70 71.41 72.21 71.83 70.59 68.43 68.45 69.44 68.32 71.81 70.97 70.49 70.87 71.33 71.50 73.10 73.38 73.23 73.41 73.41 72.95 73.06
72.01 71.28 70.58 70.32 69.95 68.64 69.55 70.29 69.15 67.76 67.60 69.25 70.48 71.45 71.07 67.47 67.54 68.07 68.36 69.32 71.20 71.94 70.94 70.24 70.65 71.27 71.35 72.76 73.00 73.04 73.18 73.02 73.07
69.79 68.65 67.57 67.65 67.20 66.62 66.59 66.83 66.51 65.59 65.13 66.55 69.34 68.92 68.74 67.02 66.04 66.07 66.91 70.83 70.23 70.79 71.80 70.82 70.09 70.33 71.15 71.14 72.34 72.47 72.66 72.81 73.03
66.65 66.02 66.18 65.51 65.57 65.03 64.51 64.87 64.67 64.33 63.71 63.87 67.77 68.97 68.03 63.73 64.05 65.25 65.58 70.66 69.32 68.78 69.06 71.07 71.05 70.07 70.07 70.67 71.16 71.98 71.54 72.20 72.55
65.65 64.83 64.84 64.62 63.91 63.51 62.87 62.10 61.99 62.39 62.13 61.46 60.27 59.43 61.56 61.08 63.05 64.17 64.70 68.56 67.96 68.04 68.26 68.32 69.31 70.61 70.13 70.07 70.42 71.43 71.00 71.59 72.60
57.57 63.61 63.41 62.94 62.50 61.97 61.37 60.56 58.89 56.82 57.98 58.95 57.45 53.42 46.40 48.63 55.58 58.32 64.53 64.79 64.18 63.72 64.04 66.42 68.12 69.51 70.69 70.41 69.68 70.38 71.12 70.40 71.49
57.06 59.22 60.93 60.72 60.50 59.94 59.32 57.89 55.79 50.38 44.16 44.94 49.70 44.11 43.93 45.04 45.97 50.40 61.20 62.63 63.54 63.02 62.44 63.20 65.53 67.55 68.41 69.61 70.55 69.35 69.95 69.90 70.00
43.51 43.34 43.75 44.04 51.19 43.98 45.51 44.26 44.11 43.22 43.72 43.16 42.27 42.98 42.92 42.29 44.00 49.45 59.54 60.96 62.37 62.80 61.53 61.71 62.59 63.83 65.91 67.24 68.78 69.94 70.23 69.76 69.58
42.28 42.47 42.42 42.43 42.27 42.27 42.46 42.37 42.76 42.87 43.09 41.05 41.14 40.60 41.44 41.99 43.15 45.56 56.78 58.55 60.07 61.88 61.67 60.96 61.27 61.44 62.66 63.97 66.19 67.80 68.54 69.70 70.38
42.49 41.98 42.26 42.29 42.53 42.58 42.24 42.24 42.12 41.89 42.47 42.58 41.93 41.06 40.75 40.86 41.90 42.67 53.21 56.73 58.47 59.59 60.65 61.71 59.99 60.14 61.00 62.04 63.42 63.75 64.87 67.72 68.74
43.02 42.93 42.82 42.68 42.51 42.51 42.44 41.82 41.91 41.64 41.78 42.28 42.34 41.28 40.78 40.58 40.91 42.50 43.60 55.15 57.87 59.56 60.11 59.80 60.35 59.09 59.95 60.90 61.73 62.31 63.39 64.06 67.20
42.93 42.92 42.75 42.85 42.82 43.21 42.74 42.14 42.13 41.98 42.71 40.90 41.72 41.95 40.77 40.82 41.02 41.73 42.51 44.55 52.81 58.65 59.97 62.22 62.14 59.39 59.43 60.52 61.07 61.11 61.97 63.07 65.29
43.39 43.43 43.28 43.39 43.35 42.76 42.26 41.79 41.74 41.18 40.98 40.53 41.42 40.88 40.42 40.33 40.98 41.40 41.25 42.81 42.90 46.59 54.89 56.53 59.07 60.25 62.12 61.81 60.65 60.05 61.06 61.04 61.12
43.81 43.32 43.12 43.59 43.12 42.13 42.49 41.17 41.06 40.12 40.28 41.99 41.14 39.60 38.89 39.16 41.77 38.89 40.32 41.34 41.69 41.76 48.58 52.31 54.03 56.51 58.12 58.80 59.41 60.96 61.29 60.64 60.36
43.78 43.27 43.15 42.79 42.12 41.06 40.66 39.87 39.79 39.34 39.15 42.36 40.92 38.32 38.02 38.03 37.84 37.88 40.61 39.98 40.87 40.84 41.39 41.29 43.27 52.12 54.52 56.10 58.19 58.85 58.97 60.02 61.00
43.64 42.97 42.48 42.32 41.84 41.01 40.75 40.01 38.89 38.46 38.24 37.68 37.47 36.99 37.40 36.07 36.97 36.88 37.62 38.95 39.70 39.66 40.53 40.52 40.55 41.65 50.03 51.85 54.81 56.31 57.49 58.43 58.71
43.98 43.42 42.49 41.91 41.21 40.06 39.61 39.26 38.14 38.14 37.66 35.94 33.58 32.88 35.49 36.06 37.83 36.73 37.75 36.69 38.19 39.31 40.34 39.21 39.82 40.04 40.96 45.35 50.27 51.64 54.81 56.63 57.92
43.40 42.65 41.99 41.16 40.38 39.80 38.57 38.45 38.26 37.07 36.53 36.11 36.01 31.86 30.08 31.95 35.92 36.31 36.56 36.49 37.08 37.03 38.00 39.18 39.76 39.43 39.40 42.71 44.68 49.76 51.74 53.79 55.76
43.02 42.53 41.32 40.53 39.57 38.71 38.29 39.49 37.85 37.04 36.05 35.30 37.95 34.94 34.32 32.18 30.66 34.31 35.56 36.49 36.94 36.58 37.03 37.88 38.48 38.91 39.20 43.12 46.82 49.32 50.50 51.78 53.72
42.75 41.85 40.29 39.40 38.84 38.41 38.30 37.72 36.71 36.25 35.73 34.93 34.09 33.22 32.82 32.25 31.69 31.89 31.88 34.52 35.53 36.03 36.45 37.10 37.25 38.06 38.65 39.12 42.33 48.88 50.36 51.28 52.13

GFSFLT1_sfc_wetblb_087.txt.gz
Wetbulb
71.58 71.30 70.95 71.25 70.79 70.66 71.19 70.23 69.09 69.40 70.99 72.31 72.51 72.34 71.68 71.20 71.51 71.35 71.13 70.49 72.25 71.58 70.69 71.27 71.48 72.17 73.14 73.08 73.53 73.60 73.21 73.16 73.48
71.68 70.85 70.59 69.16 69.28 70.49 68.69 67.92 67.21 67.77 69.94 70.92 71.83 71.75 70.92 70.58 70.58 70.07 70.04 70.22 70.81 72.59 71.85 70.59 71.02 71.51 71.98 72.88 72.83 73.16 73.30 73.27 72.84
68.96 68.41 68.30 67.63 67.40 67.77 67.27 66.59 65.97 66.06 69.30 70.53 69.97 69.99 68.67 68.60 68.36 68.97 69.65 70.81 69.68 69.58 70.55 71.83 70.62 70.58 71.38 71.70 72.60 72.46 72.86 73.14 73.28
67.20 66.91 66.77 66.38 65.76 65.42 65.43 65.24 64.72 64.31 64.83 65.81 67.00 67.63 67.31 67.93 67.47 66.75 67.79 69.97 68.70 69.02 69.00 69.22 71.53 70.50 70.39 71.04 71.47 72.07 72.01 72.63 72.88
66.16 65.87 65.34 64.89 64.35 63.56 62.75 62.33 62.66 62.59 62.11 61.24 60.02 58.90 59.67 62.07 61.98 63.89 64.62 66.95 65.59 65.42 65.69 68.58 69.43 71.23 70.95 70.14 70.74 71.81 71.22 72.18 72.72
63.79 64.32 63.91 63.46 62.81 62.14 61.28 60.07 58.49 57.10 58.50 58.60 57.04 55.08 53.48 54.50 55.35 60.48 62.90 64.36 65.14 64.66 64.20 64.94 67.95 69.00 70.59 71.25 70.33 70.43 71.13 71.04 71.77
61.45 62.04 62.24 61.83 61.15 60.15 59.00 57.45 55.78 53.87 52.27 52.37 53.41 52.21 52.65 52.77 53.04 57.99 61.45 62.67 64.14 63.86 62.76 63.19 64.17 66.68 67.84 69.39 70.74 70.26 70.02 70.37 70.08
53.92 53.10 53.16 53.76 53.93 52.03 52.55 52.27 51.67 51.49 51.47 51.29 50.98 51.37 51.48 51.54 52.08 53.77 58.65 60.15 61.80 63.31 62.59 62.09 62.59 63.19 64.77 66.03 68.43 69.48 70.42 70.34 69.62
51.37 51.49 51.81 51.97 52.08 51.71 51.98 51.47 51.59 51.29 50.92 50.79 50.44 50.45 50.53 50.63 50.93 52.06 56.94 58.81 60.27 61.03 62.82 62.39 61.62 61.53 62.30 63.79 65.73 65.99 67.70 69.23 69.74
51.43 51.14 51.54 51.60 52.01 51.93 51.68 51.51 51.14 51.02 50.92 50.78 50.18 49.68 49.65 49.91 50.42 51.40 56.56 58.82 59.83 60.08 60.63 60.73 61.08 60.57 61.49 62.21 63.05 63.62 64.65 65.50 68.34
51.53 51.37 51.28 51.38 51.83 51.30 51.18 51.01 50.82 50.25 50.69 50.19 49.94 49.42 49.70 49.48 49.68 50.28 51.92 57.38 60.00 61.03 62.83 62.32 60.68 59.89 60.68 61.53 62.05 62.16 63.06 64.12 65.87
51.59 51.16 51.12 50.84 51.10 50.67 50.81 50.64 50.80 50.61 50.25 50.02 49.82 49.13 49.15 49.58 49.20 49.54 50.44 50.80 52.61 56.54 58.44 60.95 62.36 62.72 62.27 61.53 60.89 61.05 62.03 61.88 63.09
51.53 51.61 51.50 51.26 51.35 51.46 51.15 51.05 50.63 49.97 49.92 49.93 50.15 49.14 49.32 49.00 48.84 49.07 49.57 50.44 49.49 50.74 54.90 56.24 58.06 59.64 60.35 60.76 61.64 62.21 61.61 61.55 61.37
51.78 51.82 51.61 51.68 51.45 51.46 51.45 50.59 50.61 50.16 49.98 49.68 49.91 49.52 49.26 48.44 48.03 48.49 48.89 49.50 49.44 49.41 50.49 51.70 52.69 55.30 57.44 58.69 60.01 59.95 60.52 61.40 61.71
51.75 51.60 51.26 51.23 51.07 50.58 50.66 50.30 49.88 49.73 48.75 47.97 48.53 49.31 48.61 48.73 48.65 47.79 48.40 48.60 48.87 48.92 49.45 49.40 49.01 51.60 53.84 54.98 57.35 58.00 58.83 59.47 60.38
51.62 51.50 50.99 50.95 50.91 50.78 50.29 49.88 48.96 48.94 48.11 48.39 48.65 48.81 48.19 48.03 47.66 48.38 48.99 48.19 48.70 48.16 48.46 48.29 48.24 48.35 49.75 50.72 53.44 54.85 56.30 57.61 58.86
51.00 51.34 50.64 50.32 50.18 49.45 49.00 49.07 48.66 48.51 48.02 47.26 45.66 44.55 47.11 47.74 47.34 48.24 47.39 47.01 47.90 47.63 47.32 47.37 47.42 47.87 48.21 48.55 49.95 50.76 53.29 55.42 56.69
50.79 50.82 50.65 50.16 49.79 49.36 48.48 48.05 47.90 47.46 46.83 46.05 46.91 43.30 42.24 43.01 47.12 46.49 46.74 46.68 47.05 47.06 46.90 46.69 46.82 46.98 47.44 48.02 48.17 49.03 51.28 53.14 54.93
50.04 49.87 49.49 49.29 48.90 48.24 48.10 47.51 47.60 47.05 46.20 45.83 45.47 45.76 44.75 41.09 40.42 44.92 45.36 46.32 45.06 45.95 46.02 45.97 46.19 46.55 46.88 47.32 47.97 49.09 50.11 51.25 52.89
48.73 48.79 48.42 48.08 47.98 47.82 47.32 46.70 46.27 46.73 46.51 45.55 44.89 44.08 43.59 43.01 40.42 38.63 41.57 43.53 44.62 45.15 44.90 45.27 45.56 46.04 46.55 46.86 47.34 48.55 49.71 50.95 52.21